Downstream station:
SHEF ID: TLPT2 Middle Wichita Rv nr Guthrie, TX
STATION TYPE:
STAGE RIV-FLOW BAT-LOAD
ft cfs volt
Ccp-Rev Ccp-Rev Ccp-Rev
(US/Central)
08/28 00:00 8.22 7 12.87
08/28 01:00 8.22 7 12.87
08/28 02:00 8.21 7 12.87
08/28 03:00 8.22 7 12.87
08/28 04:00 8.23 7 12.86
08/28 05:00 8.22 7 12.87
08/28 06:00 8.23 7 12.87
08/28 07:00 8.22 7 12.87
08/28 08:00 8.21 7 12.87
08/28 09:00 8.23 7 12.88
08/28 10:00 8.23 7 12.87
08/28 11:00 8.23 7 12.87
08/28 12:00 8.22 7 12.86
08/28 13:00 8.23 7 12.86
08/28 14:00 8.04 5 12.86
08/28 15:00 8.04 5 12.86
08/28 16:00 8.02 5 12.85
08/28 17:00 8.03 5 12.84
08/28 18:00 7.99 5 12.84
08/28 19:00 8.00 5 12.84
08/28 20:00 7.98 5 12.82
08/28 21:00 7.96 4 12.84
08/28 22:00 7.96 4 12.84
08/28 23:00 ---- ---- ----